Location: North Runcton
(52.7000°N, 0.4333°E)
Time: 06:41:07
(UTC+00:00)

Cosmos 2369 - Pass Details

Date: 19 May 2025
Orbit: 840 x 853 km, 71.0° (Epoch: 18 June)

Event Time Altitude Azimuth Distance (km) Brightness Sun altitude
Rises 21:28:50 0° 329° (NNW) 3,418 9.1 -10.7°
Reaches altitude 10° 21:31:19 10° 332° (NNW) 2,477 7.7 -10.9°
Maximum altitude 21:36:58 63° 54° (NE) 938 4.0 -11.4°
Enters shadow 21:41:39 15° 134° (SE) 2,123 5.2 -11.8°
